User: anonymous   Login
Location: La Brionne
(46.1728°N, 1.7849°E)
Time: 12:49:58
(UTC+00:00)
Language:

Resurs 01 Rocket - Orbit

View from above orbital plane
View from above orbital plane
View from above satellite
View from above satellite

Ground track
Ground track

The orbit data is extracted from the following two-line orbital elements,

1 23343U 94074B   21262.89220584  .00000030  00000-0  11552-4 0  9991
2 23343  97.9367 316.0370 0008246 107.0541  66.0079 14.76900694446431
Epoch (UTC): 19 September 2021 21:24:46
Eccentricity: 0.0008246
inclination: 97.9367°
perigee height: 633 km
apogee height: 645 km
right ascension of ascending node: 316.0370°
argument of perigee: 107.0541°
revolutions per day: 14.76900694
mean anomaly at epoch: 66.0079°
orbit number at epoch: 44643

The dashed part of the orbit path shows where the satellite is in the earth's shadow,  

DLR